Starlink 32220

operational
NORAD ID: 60370 Int'l Des: 2024-138 Owner: SPXS Country: US Constellation: starlink
LEOCIRCULAR

About Starlink 32220

Description loading...

Live Position

Loading 3D Globe...

Upcoming Passes

Altitude History

Altitude vs Time

uPlot chart will show altitude changes over time

Two-Line Element Set

1 60370U 24138R 26066.12893601 .00000369 00000-0 24584-4 0 9999
2 60370 53.1609 321.6301 0001154 94.0513 266.0619 15.30175326 90238
Epoch: Mar 7, 2026 • Age: 15 hours

Current Status

Altitude 491.1 km
Velocity 7.62 km/s
Sub-Earth Point -44.70°S, 124.12°W
Launch Date Aug 4, 2024
Age 1.5 years
Type internet

Technical Details

Classification Payload
Mass 730.00 kg
Dry Mass 700.00 kg
Total Mass 730.00 kg
Length 0.30 m
Diameter 4.10 m
Span 29.00 m
Shape Box + pan
Manufacturer SPXS
Bus Type Starlink V2M
Phase Status In Orbit
Owner/State SPXS/US

Large Constellations

Loading constellations...